星链-11455 (STARLINK-11455)

导读 | 星芒AI

STARLINK-11455 是 SpaceX Starlink 项目中的一颗低轨通信卫星,属于第11批发射的星链卫星群。该卫星于2020年11月发射,运行在约550公里高的轨道上,旨在为全球提供高速互联网服务。它采用先进的相控阵天线和激光通信技术,提高数据传输效率并减少延迟。Starlink 卫星群致力于覆盖偏远地区,推动全球互联网接入的公平性。STARLINK-11455 在轨运行稳定,是实现 SpaceX 构建全球卫星互联网网络目标的重要组成部分。

基本信息
目录编号:
62463
目录名称:
STARLINK-11455
国际标识:
2024-254B
轨道中心:
EARTH
卫星名称:
星链-11455
卫星全名:
星链-11455 (STARLINK-11455)
卫星状态:
在轨 (已飞行307 天)
发射日期:
2024-12-31 UTC
国别 :
美国 (US)
星等 :
--
轨道信息
数据来源 国际轨道数据
星历时间: 2025-11-02T17:08:39+0800
1天前
查看轨道信息
半长轴: 6734.359km
偏心率: 0.0002735
轨道倾角: 43.001°
近地点辐角 279.514°
升交点赤经 270.828°
平近点角 80.542°
近地点: 354.382km
远地点: 358.066km
周期: 91.665分钟
每日圈数: 15.709356
详细信息
固有亮度:
5
最大亮度:
2.5
卫星平台:
Starlink V1.0
覆盖范围:
全球
运营商:
太空探索技术公司
运营商所在国:
美国
制造商(研发单位):
太空探索技术公司
制造商所在国:
美国
使用方式:
暂无
卫星简介
Starlink 计划是 SpaceX 推出的全球卫星互联网项目,通过发射低轨道卫星,为全球尤其是偏远地区提供高速、低延迟的互联网服务。自 2019 年起,Starlink 已部署数千颗卫星,旨在缩小全球数字鸿沟,推动互联网普及。该项目还为军事、航空等行业提供通信支持,带来广泛经济效益。
2D轨道图
3D轨道图
轨道高度分析图
轨道倾角分析图
轨道综合分析图
查看轨道综合分析图